Find Iridium 29

NORAD ID: 24944 Int'l Des: 1997-051 Owner: IRID Country: US Constellation: iridium operational
LEOCIRCULARPOLAR

Current View

Loading 3D Globe...

About Iridium 29

Description loading...

Upcoming Passes

Passes for default location (London). Set your location on the main map for personalized predictions.

Altitude History

Loading altitude history...

Two-Line Element Set

1 24944U 97051A 26146.10077905 .00000314 00000-0 99898-4 0 9998
2 24944 86.3967 359.9293 0002013 89.6126 270.5302 14.36795469502507
Epoch: May 26, 2026 • Age: 14 hours

Current Status

Altitude 773.7 km
Velocity 7.47 km/s
Sub-Earth Point 39.02°N, 121.2°W
Launch Date Sep 14, 1997
Age 28.6 years
Type communications

Technical Details

Classification Payload
Mass 662.00 kg
Dry Mass 556.00 kg
Total Mass 662.00 kg
Length 3.50 m
Diameter 1.00 m
Span 5.00 m
Shape Box + 2 Pan
Manufacturer MOTO/LMMS
Bus Type LM700
Phase Status In Orbit
Owner/State IRID/US

Most Searched